Regional Weather Roundup
Issued by NWS

Home | Current Version | Previous Version | Graphics & Text | Print | Product List | Glossary On
Versions: 1 2 3 4 5 6 7 8 9 10 11 12 13 14 15 16 17 18 19 20 21 22 23 24 25 26 27 28 29 30 31 32 33 34 35 36 37 38 39 40 41 42 43 44 45 46 47 48 49 50
000
ASUS43 KDMX 210006
RWRIA

WEATHER ROUNDUP FOR IOWA
NATIONAL WEATHER SERVICE DES MOINES IA
700 PM CDT SUN AUG 20 2017

NOTE: "FAIR" INDICATES FEW OR NO CLOUDS BELOW 12,000 FEET WITH NO
SIGNIFICANT WEATHER AND/OR OBSTRUCTIONS TO VISIBILITY.

* - THESE STATIONS ARE NOT NWS STATIONS...THUS NOT UNDER NWS
QUALITY CONTROL.  THEY ALSO DO NOT REPORT WEATHER SUCH
AS PRECIPITATION OR FOG.

IAZ001>003-012>014-020>022-031>034-043>046-210100-
   NORTHWEST IOWA

CITY           SKY/WX    TMP DP  RH WIND       PRES   REMARKS
CARROLL *      SUNNY     81  75  83 SW3       29.97R HX  86
CHEROKEE *     PTSUNNY   83  70  65 SW7       29.97R HX  87
DENISON *      SUNNY     81  70  69 CALM      29.99S HX  84
LE MARS *      CLOUDY   100 N/A N/A S5        29.96R
ORANGE CITY *  PTSUNNY   82  72  69 CALM      29.98S HX  87
SHELDON *      PTSUNNY   81  70  69 CALM      29.97R HX  84
SIOUX CITY     MOSUNNY   82  68  62 S3        29.95F HX  85
6HR MIN TEMP:  81; 6HR MAX TEMP:  86;

SPENCER        SUNNY     83  67  58 SW3       29.98R HX  85
6HR MIN TEMP:  81; 6HR MAX TEMP:  86;

STORM LAKE *   SUNNY     82  72  69 SW3       29.98R HX  87
$$

IAZ055>058-069>071-079>083-090>094-210100-
   SOUTHWEST IOWA

CITY           SKY/WX    TMP DP  RH WIND       PRES   REMARKS
ATLANTIC *     PTSUNNY   77  70  78 S6        29.97R
AUDUBON *      MOSUNNY   79  72  78 SE5       29.98S HX  82
CLARINDA *     MOSUNNY   77  70  78 E5        29.98S
COUNCIL BLFS * SUNNY     79  68  69 SE10      29.96R HX  81
CRESTON *      MOSUNNY   73  68  83 SW9       29.99R
HARLAN  *      MOSUNNY   81  68  65 CALM      30.00S HX  83
LAMONI         MOSUNNY   71  66  84 E6        29.98S
6HR MIN TEMP:  70; 6HR MAX TEMP:  74; 6HR PCP: TRACE;

RED OAK *      PTSUNNY   79  72  78 NE6       29.96S HX  82
SHENANDOAH *   MOSUNNY   79  70  73 E5        29.95S HX  81
$$

IAZ047>049-059>061-072>074-084-210100-
   CENTRAL IOWA

CITY           SKY/WX    TMP DP  RH WIND       PRES   REMARKS
AMES           SUNNY     80  73  79 S5        29.96S HX  84
6HR MIN TEMP:  78; 6HR MAX TEMP:  86;

ANKENY *       MOSUNNY   79  68  69 S5        29.97S HX  81
BOONE *        MOSUNNY   81  72  74 S5        29.96S HX  84
CHARITON *     MOSUNNY   77  66  69 CALM      29.98R
DES MOINES     MOSUNNY   80  65  59 CALM      29.96S HX  82
6HR MIN TEMP:  76; 6HR MAX TEMP:  81;

GRINNELL*      SUNNY     77  69  76 CALM      30.00S
KNOXVILLE *    MOSUNNY   77  66  69 CALM      29.96F
MARSHALLTOWN   SUNNY     78  68  71 SE6       29.97S HX  80
6HR MIN TEMP:  78; 6HR MAX TEMP:  83;

NEWTON *       SUNNY     77  70  78 S5        29.98S
PELLA *        SUNNY     78  67  69 CALM      29.98F HX  80
PERRY *          N/A     79  72  78 S6        29.97R HX  82
$$

IAZ004>006-015-016-023>025-035-036-210100-
   NORTH CENTRAL IOWA

CITY           SKY/WX    TMP DP  RH WIND       PRES   REMARKS
ALGONA *       SUNNY     82  70  65 CALM      29.97S HX  86
CLARION *      SUNNY     81  72  74 SE5       29.97S HX  84
ESTHERVILLE    SUNNY     82  68  62 CALM      29.98R HX  85
6HR MIN TEMP:  79; 6HR MAX TEMP:  84;

FORT DODGE *   SUNNY     82  70  65 E5        29.97S HX  86
MASON CITY     SUNNY     82  67  60 SW5       29.99R HX  84
6HR MIN TEMP:  82; 6HR MAX TEMP:  85;

FOREST CITY *    N/A     81  68  65 CALM      29.98R HX  83
WEBSTER CITY * SUNNY     84  70  61 E5        29.95R HX  88
IOWA FALLS *     N/A     81  70  68 SE3       29.99R HX  85
$$

IAZ007>011-017>019-026>030-037>042-050>054-066-210100-
   NORTHEAST IOWA

CITY           SKY/WX    TMP DP  RH WIND       PRES   REMARKS
CEDAR RAPIDS   PTCLDY    78  69  73 SE5       29.98S HX  80
6HR MIN TEMP:  76; 6HR MAX TEMP:  82;

CHARLES CITY * SUNNY     81  70  69 CALM      29.98S HX  84
CLINTON *      CLOUDY    76  71  85 E3        30.00S
DECORAH *      MOSUNNY   77  68  73 S7        29.99R
DUBUQUE        CLOUDY    75  67  76 S3        30.02S
6HR MIN TEMP:  72; 6HR MAX TEMP:  76; 6HR PCP: TRACE;

MONTICELLO *   CLOUDY    77  68  73 CALM      30.00R
OELWEIN *      SUNNY     77  70  78 S7        30.00S
WATERLOO       SUNNY     79  65  62 S7        29.97R HX  81
6HR MIN TEMP:  79; 6HR MAX TEMP:  87;

$$

IAZ064-065-067-068-078-210100-
   EAST CENTRAL IOWA

CITY           SKY/WX    TMP DP  RH WIND       PRES   REMARKS
DAVENPORT      MOCLDY    76  70  82 E6        30.00F
6HR MIN TEMP:  72; 6HR MAX TEMP:  79;

IOWA CITY      PTCLDY    82  70  66 E6        29.98S HX  86
6HR MIN TEMP:  74; 6HR MAX TEMP:  82;

MT. PLEASANT * MOCLDY    80  66  62 W3        29.97R HX  82
MUSCATINE *    CLOUDY    82  72  69 E5        29.96S HX  87
QUAD CITIES    CLOUDY    80  69  69 E7        29.97F HX  83
6HR MIN TEMP:  76; 6HR MAX TEMP:  83;

$$

IAZ062-063-075>077-085>089-095>099-210100-
   SOUTHEAST IOWA

CITY           SKY/WX    TMP DP  RH WIND       PRES   REMARKS
BURLINGTON     CLOUDY    81  73  76 S5        29.97S HX  86
6HR MIN TEMP:  78; 6HR MAX TEMP:  84;

FAIRFIELD *    CLOUDY    79  68  69 NW8       29.97S HX  81
FORT MADISON * CLOUDY    79  72  78 CALM      29.98R HX  82
KEOKUK *       PTCLDY    81  68  65 S5G12     29.98R HX  83
OSKALOOSA *      N/A     77  68  72 CALM      29.98S
CENTERVILLE *    N/A     73  68  83 CALM      30.01S
OTTUMWA        CLOUDY    80  67  64 NW5       29.96F HX  82
6HR MIN TEMP:  78; 6HR MAX TEMP:  85;

WASHINGTON *   CLOUDY    79  72  78 SW6       29.97S HX  82
$$

ABBREVIATIONS USED IN REMARKS
   TC - TEMPERATURES IN CELSIUS
  WCI - WIND CHILL INDEX
   HX - HEAT INDEX
  VSB - VISIBILITY
$$




USA.gov is the U.S. government's official web portal to all federal, state and local government web resources and services.